[[{"header":{"parameterUnit":"m.s-1","parameterCategory":1,"la1":30.2991,"la2":30.254,"lo1":-89.0895,"lo2":-89.0444,"dy":0.0017,"dx":0.0017,"nx":28,"ny":28,"refTime":"2025-07-05T03:00:00:Z","depth":0,"parameterNumber":2,"parameterNumberName":"U-component_of_WINDS"},"data":[0,0,0,0,0,0,0,0,0,0,0,0,0,0,0,0,0,0,0,0,0,0,0,0,0,0,0,0,0,0,0,0,0,0,0,0,0,0,0,0,0,0,0,0,0,0,0,0,0,0,0,0,0,0,0,0,0,0,0.1832,0.1833,0,0.194,0.1941,0.1942,0.194,0.1939,0.1937,0.1936,0.2053,0.2057,0.2062,0,0,0,0,0,0,0,0,0,0,0,0,0,0.163,0.1633,0.1832,0.1833,0.1834,0.194,0.1941,0.1943,0.1941,0.1939,0.1937,0.1935,0.2052,0.2057,0.2062,0,0,0,0,0,0,0,0,0,0,0,0,0,0.1726,0.1635,0.1831,0.1846,0.1848,0.194,0.1941,0.1943,0.1941,0.1939,0.1936,0.1934,0.205,0.2056,0.2063,0.2149,0,0,0.2084,0.2087,0,0,0,0,0,0,0,0,0.172,0.1733,0.1842,0.1845,0.1848,0.1924,0.1913,0.2012,0.1941,0.1906,0.1936,0.1933,0.2012,0.2022,0.2047,0.2155,0.216,0.2084,0.2088,0.2091,0.2093,0,0,0,0,0,0,0,0.1714,0.1729,0.1875,0.1844,0.1847,0.1849,0.186,0.1932,0.1971,0.1909,0.1909,0.1921,0.2013,0.2041,0.205,0.2161,0.2084,0.209,0.2094,0.2097,0.2347,0.235,0,0,0,0,0,0,0.1703,0.1723,0.1871,0.1878,0.1777,0.1854,0.1867,0.1902,0.197,0.1978,0.1923,0.1921,0.203,0.2042,0.2054,0.2161,0.2091,0.2097,0.2101,0.2345,0.2348,0.2351,0,0,0,0,0,0,0.1699,0.1716,0.1867,0.1801,0.182,0.186,0.19,0.1905,0.1933,0.198,0.1988,0.1944,0.2029,0.2045,0.2126,0.2165,0.2101,0.2107,0.2342,0.2346,0.2349,0.2374,0,0,0,0,0,0,0.1693,0.1715,0.1746,0.1801,0.1823,0.1934,0.1902,0.1909,0.1944,0.1942,0.2002,0.201,0.2029,0.2116,0.2132,0.2173,0.2112,0.2338,0.2343,0.2348,0.237,0.2378,0.2385,0,0,0,0,0,0.1686,0.175,0.1748,0.1766,0.1863,0.1936,0.1949,0.1968,0.1947,0.198,0.2011,0.2008,0.2158,0.2124,0.2143,0.2186,0.2336,0.2342,0.2348,0.2366,0.2376,0.2385,0,0,0,0,0,0,0.17,0.1757,0.1755,0.1839,0.1882,0.1936,0.1978,0.1978,0.2031,0.2027,0.205,0.2064,0.2145,0.2174,0.2135,0.2274,0.2244,0.2254,0.2252,0.2262,0.227,0.2261,0.2118,0,0,0,0,0,0.1712,0.1765,0.1813,0.1882,0.1904,0.1937,0.197,0.1981,0.2028,0.2047,0.2084,0.2132,0.219,0.2228,0.2284,0.2374,0.2388,0.2413,0.2421,0.2427,0.2435,0.2487,0.2499,0.237,0.237,0.237,0,0,0.1739,0.1777,0.1809,0.1886,0.1921,0.1977,0.1953,0.2013,0.2056,0.2057,0.2135,0.2164,0.2219,0.2305,0.2345,0.2332,0.2474,0.2434,0.2439,0.2444,0.2494,0.2507,0.2518,0.2374,0.2373,0.2372,0,0,0.1817,0.185,0.1911,0.1947,0.2,0.2022,0.2037,0.2091,0.211,0.2188,0.2191,0.2243,0.2342,0.2382,0.2415,0.2509,0.2509,0.2527,0.2568,0.2618,0.2628,0.2638,0.2672,0.2685,0.2535,0.2536,0.2536,0,0.1844,0.1927,0.1944,0.2004,0.2039,0.2041,0.2105,0.214,0.2209,0.2234,0.2218,0.2343,0.238,0.2476,0.2499,0.2526,0.2545,0.252,0.2625,0.2634,0.2643,0.2677,0.269,0.2537,0.2537,0.2537,0.2537,0,0.1958,0.2016,0.206,0.2125,0.2165,0.2227,0.2256,0.2294,0.2302,0.2327,0.2408,0.2453,0.2519,0.2542,0.2551,0.2641,0.2631,0.262,0.259,0.2657,0.2689,0.2702,0.254,0.2539,0.2539,0.2538,0,0,0.2047,0.2122,0.2138,0.2168,0.2228,0.2274,0.2337,0.24,0.2433,0.2482,0.2537,0.2621,0.2611,0.2649,0.2663,0.2707,0.278,0.269,0.2692,0.2706,0.2884,0.2892,0.2907,0.278,0.2783,0.2785,0.2879,0,0.2132,0.2242,0.226,0.2357,0.2412,0.2416,0.2471,0.2515,0.2541,0.2593,0.2621,0.2681,0.2663,0.2686,0.2729,0.2762,0.2816,0.2755,0.2834,0.2837,0.282,0.2923,0.2932,0.3019,0.2892,0.2894,0.2896,0,0.2245,0.2295,0.2397,0.2451,0.2475,0.2524,0.2584,0.2632,0.2684,0.2699,0.2741,0.275,0.2819,0.2786,0.2882,0.284,0.2874,0.2895,0.2899,0.2908,0.287,0.2935,0.3047,0.306,0.2915,0.2914,0.2912,0,0.2301,0.2394,0.2468,0.2493,0.2557,0.2592,0.2621,0.2669,0.2707,0.276,0.2784,0.2845,0.2879,0.2927,0.2953,0.2927,0.3048,0.3017,0.3065,0.3064,0.309,0.3088,0.3209,0.3111,0.3111,0.311,0.311,0,0.2393,0.2456,0.2493,0.2539,0.261,0.2632,0.2703,0.2731,0.2775,0.2828,0.2835,0.2885,0.2916,0.2971,0.2992,0.307,0.3085,0.3101,0.3106,0.31,0.3098,0.3123,0.3118,0.3114,0.3113,0.3112,0.3112,0,0.2468,0.2495,0.2575,0.2629,0.2645,0.2695,0.2742,0.2788,0.2813,0.288,0.2897,0.2938,0.3003,0.3034,0.3115,0.313,0.3218,0.3218,0.32,0.3202,0.3247,0.3243,0.3389,0.341,0.3297,0.3298,0.3299,0,0.2525,0.2573,0.2632,0.2667,0.2696,0.2753,0.279,0.2815,0.2854,0.2916,0.2955,0.302,0.3074,0.3179,0.3217,0.328,0.3283,0.3329,0.3292,0.3286,0.3284,0.3281,0.3287,0.3336,0.3337,0.3338,0.3339,0,0.2625,0.2636,0.2689,0.2747,0.2791,0.2839,0.2885,0.2914,0.2946,0.299,0.3056,0.3098,0.318,0.3246,0.3312,0.3344,0.3348,0.335,0.3365,0.336,0.3347,0.3356,0.3219,0.3347,0.3346,0.3346,0.3345,0.3345,0.2693,0.2737,0.2785,0.2844,0.2882,0.2925,0.2971,0.3002,0.3057,0.3125,0.3136,0.3207,0.3259,0.3347,0.3382,0.3439,0.3429,0.3449,0.3455,0.3459,0.3462,0.3338,0.3451,0.3451,0.3451,0.3451,0.3451,0,0.2794,0.2825,0.2879,0.2944,0.2991,0.2988,0.3041,0.3081,0.3142,0.319,0.3242,0.3319,0.3383,0.3426,0.3492,0.3529,0.3533,0.3546,0.3544,0.3551,0.3468,0.3449,0.3542,0.3542,0.3542,0.3542,0.3542,0.3542,0.2852,0.2926,0.2943,0.3037,0.3068,0.3136,0.3166,0.3208,0.3246,0.3331,0.3383,0.341,0.3457,0.3526,0.3585,0.3597,0.3621,0.3634,0.3646,0.3567,0.3557,0.3548,0.3531,0.3639,0.3639,0.3725,0.3725,0.3726]},{"header":{"parameterUnit":"m.s-1","parameterCategory":1,"la1":30.2991,"la2":30.254,"lo1":-89.0895,"lo2":-89.0444,"dy":0.0017,"dx":0.0017,"nx":28,"ny":28,"refTime":"2025-07-05T03:00:00:Z","depth":0,"parameterNumber":3,"parameterNumberName":"V-component_of_WINDS"},"data":[0,0,0,0,0,0,0,0,0,0,0,0,0,0,0,0,0,0,0,0,0,0,0,0,0,0,0,0,0,0,0,0,0,0,0,0,0,0,0,0,0,0,0,0,0,0,0,0,0,0,0,0,0,0,0,0,0,0,-0.4771,-0.4771,0,-0.4764,-0.4764,-0.4764,-0.4764,-0.4764,-0.4764,-0.4764,-0.4757,-0.4757,-0.4757,0,0,0,0,0,0,0,0,0,0,0,0,0,-0.4787,-0.4787,-0.4771,-0.4771,-0.4771,-0.4764,-0.4764,-0.4764,-0.4764,-0.4764,-0.4764,-0.4764,-0.4757,-0.4757,-0.4757,0,0,0,0,0,0,0,0,0,0,0,0,0,-0.478,-0.4787,-0.4771,-0.477,-0.477,-0.4764,-0.4764,-0.4764,-0.4764,-0.4764,-0.4764,-0.4764,-0.4758,-0.4757,-0.4757,-0.4752,0,0,-0.4756,-0.4756,0,0,0,0,0,0,0,0,-0.4781,-0.478,-0.477,-0.477,-0.477,-0.4765,-0.4767,-0.476,-0.4764,-0.4766,-0.4764,-0.4764,-0.476,-0.4759,-0.4758,-0.4752,-0.4752,-0.4756,-0.4755,-0.4755,-0.4755,0,0,0,0,0,0,0,-0.4781,-0.478,-0.4768,-0.477,-0.477,-0.4771,-0.477,-0.4766,-0.4762,-0.4766,-0.4766,-0.4765,-0.476,-0.4758,-0.4758,-0.4752,-0.4756,-0.4755,-0.4755,-0.4755,-0.4746,-0.4746,0,0,0,0,0,0,-0.4782,-0.478,-0.4769,-0.4768,-0.4776,-0.477,-0.4769,-0.4766,-0.4762,-0.4762,-0.4765,-0.4765,-0.4759,-0.4758,-0.4757,-0.4754,-0.4755,-0.4755,-0.4755,-0.4746,-0.4746,-0.4746,0,0,0,0,0,0,-0.4782,-0.478,-0.4769,-0.4774,-0.4773,-0.477,-0.4767,-0.4766,-0.4764,-0.4762,-0.4761,-0.4764,-0.4759,-0.4758,-0.4754,-0.4754,-0.4755,-0.4755,-0.4746,-0.4746,-0.4746,-0.4747,0,0,0,0,0,0,-0.4782,-0.4781,-0.4778,-0.4774,-0.4773,-0.4765,-0.4766,-0.4766,-0.4764,-0.4764,-0.476,-0.476,-0.4759,-0.4755,-0.4754,-0.4754,-0.4754,-0.4746,-0.4746,-0.4746,-0.4747,-0.4747,-0.4747,0,0,0,0,0,-0.4783,-0.4778,-0.4778,-0.4776,-0.4769,-0.4765,-0.4764,-0.4763,-0.4764,-0.4762,-0.4761,-0.476,-0.4754,-0.4755,-0.4754,-0.4753,-0.4746,-0.4746,-0.4746,-0.4747,-0.4747,-0.4747,0,0,0,0,0,0,-0.478,-0.4777,-0.4777,-0.477,-0.4768,-0.4765,-0.4762,-0.4762,-0.476,-0.476,-0.4758,-0.4758,-0.4755,-0.4754,-0.4754,-0.475,-0.475,-0.475,-0.4751,-0.4751,-0.4751,-0.4752,-0.4754,0,0,0,0,0,-0.4779,-0.4775,-0.4773,-0.4767,-0.4766,-0.4765,-0.4763,-0.4762,-0.476,-0.4759,-0.4757,-0.4755,-0.4754,-0.4752,-0.475,-0.4747,-0.4747,-0.4746,-0.4746,-0.4746,-0.4746,-0.4747,-0.4747,-0.4746,-0.4746,-0.4746,0,0,-0.4776,-0.4774,-0.4771,-0.4767,-0.4765,-0.4763,-0.4764,-0.476,-0.4759,-0.4758,-0.4756,-0.4755,-0.4753,-0.475,-0.4749,-0.4749,-0.4747,-0.4746,-0.4746,-0.4746,-0.4747,-0.4747,-0.4747,-0.4746,-0.4746,-0.4746,0,0,-0.477,-0.4767,-0.4763,-0.4762,-0.476,-0.476,-0.4759,-0.4757,-0.4756,-0.4754,-0.4754,-0.4753,-0.4749,-0.4749,-0.4748,-0.4746,-0.4747,-0.4746,-0.4746,-0.4747,-0.4747,-0.4747,-0.4749,-0.4749,-0.4746,-0.4746,-0.4746,0,-0.4767,-0.4762,-0.4762,-0.4759,-0.4758,-0.4759,-0.4757,-0.4756,-0.4753,-0.4753,-0.4753,-0.475,-0.4749,-0.4748,-0.4748,-0.4746,-0.4747,-0.4746,-0.4747,-0.4747,-0.4747,-0.4749,-0.4749,-0.4746,-0.4746,-0.4746,-0.4746,0,-0.476,-0.4757,-0.4755,-0.4754,-0.4752,-0.475,-0.475,-0.4749,-0.475,-0.475,-0.4749,-0.4748,-0.4747,-0.4747,-0.4746,-0.4747,-0.4747,-0.4747,-0.4747,-0.4747,-0.4749,-0.4749,-0.4746,-0.4746,-0.4746,-0.4746,0,0,-0.475,-0.4751,-0.475,-0.4751,-0.475,-0.4749,-0.4748,-0.4747,-0.4748,-0.4747,-0.4747,-0.4746,-0.4747,-0.4746,-0.4746,-0.4747,-0.4749,-0.4747,-0.4747,-0.4749,-0.4752,-0.4753,-0.4753,-0.4749,-0.4749,-0.4749,-0.4753,0,-0.4745,-0.4743,-0.4744,-0.4742,-0.4742,-0.4744,-0.4743,-0.4744,-0.4745,-0.4745,-0.4746,-0.4746,-0.4746,-0.4746,-0.4747,-0.4748,-0.475,-0.4748,-0.4751,-0.4751,-0.4752,-0.4754,-0.4754,-0.4757,-0.4753,-0.4753,-0.4753,0,-0.4739,-0.4739,-0.4737,-0.474,-0.474,-0.4739,-0.4741,-0.4741,-0.4743,-0.4743,-0.4745,-0.4746,-0.4747,-0.4747,-0.475,-0.4749,-0.475,-0.4752,-0.4752,-0.4753,-0.4753,-0.4756,-0.4758,-0.4759,-0.4754,-0.4754,-0.4754,0,-0.4734,-0.4734,-0.4734,-0.4734,-0.4737,-0.4737,-0.4738,-0.474,-0.4741,-0.4743,-0.4744,-0.4746,-0.4747,-0.4749,-0.4751,-0.4751,-0.4755,-0.4754,-0.4757,-0.4757,-0.4758,-0.4758,-0.4761,-0.4757,-0.4757,-0.4757,-0.4757,0,-0.4729,-0.4729,-0.4733,-0.4733,-0.4733,-0.4735,-0.4736,-0.4738,-0.474,-0.4742,-0.4743,-0.4745,-0.4747,-0.475,-0.4752,-0.4755,-0.4755,-0.4757,-0.4758,-0.4758,-0.4758,-0.4759,-0.4759,-0.4757,-0.4757,-0.4757,-0.4757,0,-0.4724,-0.4726,-0.4727,-0.473,-0.4731,-0.4732,-0.4735,-0.4736,-0.4739,-0.4741,-0.4742,-0.4745,-0.4748,-0.4751,-0.4755,-0.4757,-0.4761,-0.4761,-0.476,-0.4761,-0.4764,-0.4764,-0.4769,-0.4771,-0.4764,-0.4764,-0.4764,0,-0.4721,-0.4721,-0.4725,-0.4727,-0.4728,-0.473,-0.4732,-0.4735,-0.4737,-0.4741,-0.4742,-0.4746,-0.4749,-0.4755,-0.4758,-0.4762,-0.4763,-0.4765,-0.4764,-0.4765,-0.4766,-0.4766,-0.4767,-0.4765,-0.4765,-0.4765,-0.4765,0,-0.4717,-0.4719,-0.4721,-0.4724,-0.4727,-0.4729,-0.4732,-0.4734,-0.4738,-0.474,-0.4744,-0.4747,-0.4752,-0.4757,-0.4762,-0.4764,-0.4766,-0.4766,-0.4767,-0.4767,-0.4767,-0.4769,-0.4762,-0.4765,-0.4765,-0.4765,-0.4765,-0.4765,-0.4714,-0.4715,-0.4719,-0.4723,-0.4726,-0.4729,-0.4731,-0.4735,-0.4738,-0.4743,-0.4745,-0.475,-0.4754,-0.4762,-0.4764,-0.4769,-0.4769,-0.477,-0.4771,-0.4771,-0.4772,-0.4766,-0.477,-0.477,-0.477,-0.477,-0.477,0,-0.4711,-0.4714,-0.4717,-0.4722,-0.4726,-0.4728,-0.4732,-0.4735,-0.4739,-0.4744,-0.4748,-0.4754,-0.4759,-0.4764,-0.477,-0.4773,-0.4774,-0.4775,-0.4775,-0.4776,-0.4771,-0.477,-0.4774,-0.4774,-0.4774,-0.4774,-0.4774,-0.4774,-0.471,-0.4713,-0.4716,-0.4722,-0.4726,-0.4731,-0.4734,-0.4738,-0.4742,-0.4749,-0.4753,-0.4757,-0.4762,-0.4769,-0.4775,-0.4776,-0.4779,-0.4779,-0.4781,-0.4776,-0.4776,-0.4775,-0.4775,-0.4779,-0.4779,-0.4786,-0.4786,-0.4786]}]]